Location: Plainartige
(45.6866°N, 1.7993°E)
Time: 04:03:53
(UTC+00:00)

Vanguard 1 - Pass Details

Date: 26 May 2022
Orbit: 649 x 3833 km, 34.2° (Epoch: 06 July)

Event Time Altitude Azimuth Distance (km) Brightness Sun altitude
Exits shadow 22:39:44 20° 131° (SE) 4,309 12.8 -21.2°
Maximum altitude 22:40:11 20° 129° (SE) 4,352 12.8 -21.2°
Drops below altitude 10° 22:50:59 10° 92° (E) 6,087 13.9 -21.7°
Sets 22:58:33 0° 79° (E) 7,587 14.6 -22.0°
